Oakland, CA

3:02 AM PDT on June 22, 2018 (GMT -0700)
Metro Oakland International

Weather History for KOAK - November, 2017

Change the Weather History Date:

Wednesday, November 1, 2017

  Actual Average Record
Temperature  
Mean Temperature 56 °F 58 °F  
Max Temperature 66 °F 67 °F 81 °F (2011)
Min Temperature 46 °F 49 °F 39 °F (2003)
Degree Days  
Heating Degree Days 9 7  
Month to date heating degree days 9 7  
Since 1 July heating degree days 202 359  
Cooling Degree Days 0 0  
Month to date cooling degree days 0 0  
Year to date cooling degree days 312 137  
Growing Degree Days 6 (Base 50)    
Moisture  
Dew Point 49 °F    
Average Humidity 79    
Maximum Humidity 100    
Minimum Humidity 58    
Precipitation  
Precipitation 0.00 in 0.08 in 1.27 in (2008)
Month to date precipitation 0.00 0.08  
Year to date precipitation 20.25 14.78  
Sea Level Pressure  
Sea Level Pressure 29.96 in    
Wind  
Wind Speed 5 mph (WNW)    
Max Wind Speed 16 mph    
Max Gust Speed 17 mph    
Visibility 10 miles    
Events      
T = Trace of Precipitation, MM = Missing Value Source: NWS Daily Summary

Daily Weather History Graph

Daily Weather History Graph

Search for Another Location

Airport or City:

Astronomy

Nov. 01, 2017 Rise Set
Actual Time 7:34 AM PDT 6:09 PM PDT
Civil Twilight 7:07 AM PDT 6:37 PM PDT
Nautical Twilight 6:36 AM PDT 7:08 PM PDT
Astronomical Twilight 6:05 AM PDT 7:38 PM PDT
Moon 5:05 PM PDT (11/1) 4:33 AM PDT (11/1)
Length of Visible Light 11h 29m
Length of Day
10h 35m
Waxing Gibbous, 92% of the Moon is Illuminated
Nov 1
Waxing Gibbous
Nov 3
Full
Nov 10
Last Quarter
Nov 18
New
Nov 26
First Quarter

Hourly Weather History & Observations

Time (PDT) Temp. Dew Point Humidity Pressure Visibility Wind Dir Wind Speed Gust Speed Precip Events Conditions
12:53 AM 51.1 °F 48.9 °F 92% 29.97 in 10.0 mi NNE 4.6 mph - N/A   Partly Cloudy
1:53 AM 46.9 °F 46.0 °F 97% 29.96 in 10.0 mi Calm Calm - N/A   Clear
2:53 AM 48.0 °F 46.9 °F 96% 29.97 in 10.0 mi ENE 4.6 mph - N/A   Clear
3:53 AM 48.0 °F 46.9 °F 96% 29.96 in 10.0 mi Calm Calm - N/A   Clear
4:53 AM 46.9 °F 46.9 °F 100% 29.96 in 10.0 mi ENE 3.5 mph - N/A   Partly Cloudy
5:53 AM 46.9 °F 46.9 °F 100% 29.96 in 10.0 mi Calm Calm - N/A   Partly Cloudy
6:53 AM 46.9 °F 46.0 °F 97% 29.96 in 10.0 mi ENE 4.6 mph - N/A   Clear
7:53 AM 48.0 °F 46.9 °F 96% 29.96 in 10.0 mi ENE 3.5 mph - N/A   Partly Cloudy
8:53 AM 53.1 °F 50.0 °F 89% 29.98 in 10.0 mi SE 4.6 mph - N/A   Partly Cloudy
9:53 AM 57.0 °F 51.1 °F 81% 29.99 in 10.0 mi SSE 4.6 mph - N/A   Partly Cloudy
10:53 AM 57.0 °F 52.0 °F 83% 29.99 in 10.0 mi Variable 4.6 mph - N/A   Clear
11:53 AM 59.0 °F 52.0 °F 78% 29.98 in 10.0 mi SSW 5.8 mph - N/A   Clear
12:53 PM 62.1 °F 51.1 °F 67% 29.96 in 10.0 mi SW 4.6 mph - N/A   Clear
1:53 PM 64.0 °F 50.0 °F 60% 29.94 in 10.0 mi SW 4.6 mph - N/A   Clear
2:53 PM 66.0 °F 51.1 °F 59% 29.92 in 10.0 mi West 6.9 mph - N/A   Partly Cloudy
3:53 PM 64.9 °F 50.0 °F 58% 29.91 in 10.0 mi West 12.7 mph - N/A   Partly Cloudy
4:53 PM 63.0 °F 51.1 °F 65% 29.91 in 10.0 mi WNW 11.5 mph - N/A   Partly Cloudy
5:53 PM 60.1 °F 51.1 °F 72% 29.92 in 10.0 mi West 13.8 mph - N/A   Partly Cloudy
6:53 PM 57.0 °F 50.0 °F 77% 29.92 in 10.0 mi NW 5.8 mph - N/A   Partly Cloudy
7:53 PM 55.9 °F 48.9 °F 77% 29.94 in 10.0 mi Calm Calm - N/A   Partly Cloudy
8:53 PM 55.9 °F 52.0 °F 87% 29.95 in 10.0 mi WNW 3.5 mph - N/A   Partly Cloudy
9:53 PM 51.1 °F 48.9 °F 92% 29.96 in 10.0 mi Calm Calm - N/A   Clear
10:53 PM 54.0 °F 51.1 °F 90% 29.98 in 10.0 mi WNW 4.6 mph - N/A   Clear
11:53 PM 55.0 °F 52.0 °F 89% 29.98 in 10.0 mi West 5.8 mph - N/A   Partly Cloudy